QPF
0.12 0.12 0.10 0.10 0.09 0.10 0.20 0.19 0.14 0.11 0.14 0.17 0.15 0.08 0.05 0.06 0.09 0.13 0.11 0.13 0.20 0.15 0.11 0.09 0.10 0.12 0.12 0.14 0.13 0.11 0.11 0.11 0.09 0.08 0.08 0.05 0.03 0.02 0.01 0.02 0.03 0.03 0.03
0.19 0.15 0.16 0.19 0.20 0.30 0.34 0.28 0.24 0.18 0.13 0.15 0.10 0.05 0.03 0.05 0.08 0.13 0.14 0.14 0.18 0.15 0.10 0.10 0.10 0.10 0.11 0.13 0.15 0.16 0.15 0.13 0.10 0.09 0.08 0.07 0.06 0.05 0.03 0.04 0.07 0.06 0.05
0.37 0.40 0.35 0.30 0.35 0.38 0.38 0.44 0.39 0.24 0.14 0.18 0.20 0.14 0.07 0.10 0.17 0.14 0.10 0.08 0.09 0.13 0.13 0.12 0.13 0.10 0.09 0.12 0.18 0.20 0.17 0.14 0.11 0.07 0.05 0.06 0.08 0.07 0.08 0.06 0.08 0.10 0.10
0.50 0.47 0.38 0.41 0.48 0.37 0.30 0.29 0.21 0.14 0.12 0.17 0.14 0.07 0.04 0.09 0.19 0.18 0.11 0.06 0.06 0.04 0.04 0.10 0.16 0.12 0.13 0.19 0.19 0.18 0.14 0.08 0.06 0.06 0.04 0.04 0.05 0.04 0.04 0.04 0.03 0.08 0.09
0.24 0.20 0.17 0.23 0.32 0.28 0.20 0.17 0.17 0.16 0.11 0.15 0.21 0.12 0.08 0.11 0.16 0.17 0.12 0.05 0.06 0.06 0.02 0.03 0.04 0.06 0.10 0.16 0.15 0.11 0.11 0.12 0.07 0.07 0.06 0.06 0.06 0.03 0.01 0.01 0.02 0.03 0.05
0.12 0.09 0.08 0.10 0.14 0.15 0.15 0.13 0.10 0.12 0.09 0.10 0.15 0.10 0.10 0.12 0.16 0.15 0.09 0.05 0.03 0.03 0.02 0.01 0.01 0.01 0.02 0.05 0.06 0.04 0.05 0.11 0.09 0.08 0.05 0.08 0.13 0.11 0.03 0.01 0.01 0.03 0.05
0.01 0.01 0.01 0.01 0.01 0.02 0.03 0.05 0.06 0.07 0.06 0.11 0.12 0.07 0.06 0.06 0.08 0.09 0.08 0.07 0.02 0.02 0.02 0.02 0.01 0.01 0.00 0.00 0.00 0.01 0.01 0.04 0.07 0.09 0.10 0.08 0.11 0.14 0.09 0.05 0.03 0.05 0.07
0.00 0.00 0.00 0.00 0.00 0.00 0.00 0.00 0.01 0.03 0.03 0.05 0.07 0.08 0.05 0.03 0.03 0.04 0.06 0.04 0.03 0.04 0.02 0.02 0.02 0.03 0.01 0.00 0.00 0.02 0.03 0.02 0.07 0.11 0.14 0.12 0.08 0.06 0.07 0.07 0.05 0.05 0.06
0.00 0.00 0.00 0.00 0.00 0.00 0.00 0.00 0.00 0.01 0.02 0.02 0.05 0.08 0.05 0.03 0.03 0.03 0.03 0.02 0.01 0.02 0.01 0.00 0.00 0.00 0.00 0.00 0.02 0.04 0.05 0.06 0.10 0.12 0.13 0.12 0.06 0.02 0.02 0.05 0.08 0.08 0.05
0.00 0.00 0.00 0.00 0.00 0.01 0.01 0.01 0.01 0.02 0.03 0.03 0.03 0.05 0.06 0.06 0.06 0.04 0.04 0.02 0.03 0.03 0.02 0.01 0.01 0.02 0.02 0.03 0.05 0.06 0.06 0.08 0.07 0.06 0.06 0.07 0.06 0.03 0.03 0.06 0.11 0.14 0.11
0.00 0.00 0.00 0.00 0.01 0.01 0.01 0.02 0.02 0.03 0.05 0.05 0.06 0.06 0.06 0.07 0.06 0.06 0.03 0.03 0.04 0.02 0.01 0.02 0.06 0.08 0.07 0.07 0.12 0.08 0.07 0.08 0.09 0.10 0.07 0.07 0.08 0.08 0.06 0.05 0.11 0.14 0.12
0.00 0.00 0.00 0.01 0.01 0.01 0.01 0.01 0.02 0.03 0.04 0.05 0.06 0.07 0.08 0.08 0.06 0.06 0.03 0.02 0.03 0.04 0.04 0.03 0.09 0.12 0.14 0.14 0.12 0.07 0.08 0.10 0.11 0.13 0.13 0.14 0.14 0.12 0.10 0.11 0.14 0.19 0.21
0.00 0.00 0.00 0.00 0.00 0.00 0.01 0.01 0.01 0.02 0.02 0.03 0.04 0.06 0.08 0.09 0.11 0.09 0.06 0.04 0.06 0.08 0.08 0.08 0.11 0.15 0.12 0.14 0.11 0.08 0.08 0.06 0.03 0.02 0.02 0.04 0.06 0.12 0.18 0.19 0.19 0.19 0.21
0.00 0.00 0.00 0.00 0.00 0.00 0.00 0.01 0.01 0.01 0.02 0.03 0.03 0.06 0.07 0.07 0.10 0.10 0.08 0.11 0.12 0.13 0.13 0.14 0.17 0.20 0.17 0.11 0.11 0.08 0.02 0.01 0.00 0.00 0.00 0.00 0.00 0.01 0.04 0.09 0.12 0.13 0.14
0.00 0.00 0.00 0.00 0.00 0.00 0.00 0.01 0.01 0.01 0.02 0.05 0.06 0.08 0.08 0.08 0.09 0.11 0.12 0.13 0.16 0.15 0.15 0.18 0.22 0.21 0.18 0.09 0.07 0.06 0.02 0.00 0.00 0.00 0.00 0.00 0.00 0.00 0.00 0.00 0.01 0.02 0.03
0.00 0.00 0.00 0.00 0.00 0.00 0.00 0.01 0.01 0.02 0.03 0.07 0.09 0.10 0.10 0.09 0.09 0.08 0.08 0.12 0.19 0.21 0.22 0.21 0.22 0.19 0.14 0.05 0.01 0.01 0.00 0.00 0.00 0.00 0.00 0.00 0.00 0.00 0.00 0.00 0.00 0.00 0.00
0.00 0.00 0.00 0.00 0.00 0.00 0.00 0.01 0.02 0.02 0.03 0.04 0.05 0.06 0.07 0.07 0.08 0.10 0.13 0.17 0.19 0.23 0.24 0.18 0.17 0.18 0.11 0.04 0.01 0.00 0.00 0.00 0.00 0.01 0.01 0.01 0.00 0.00 0.00 0.00 0.00 0.00 0.00
0.01 0.00 0.00 0.00 0.00 0.00 0.00 0.01 0.02 0.02 0.02 0.02 0.02 0.04 0.05 0.06 0.07 0.13 0.19 0.20 0.20 0.24 0.23 0.18 0.15 0.15 0.11 0.07 0.01 0.00 0.00 0.00 0.00 0.01 0.01 0.01 0.01 0.01 0.00 0.00 0.00 0.00 0.00
0.03 0.01 0.00 0.00 0.00 0.00 0.00 0.01 0.01 0.01 0.02 0.01 0.02 0.03 0.04 0.05 0.08 0.16 0.23 0.21 0.20 0.21 0.20 0.19 0.18 0.13 0.12 0.06 0.01 0.00 0.00 0.00 0.00 0.00 0.00 0.00 0.00 0.00 0.00 0.00 0.00 0.00 0.00
0.05 0.03 0.01 0.00 0.00 0.00 0.00 0.00 0.00 0.00 0.00 0.01 0.03 0.04 0.04 0.05 0.06 0.09 0.19 0.28 0.28 0.25 0.26 0.24 0.22 0.17 0.11 0.06 0.02 0.01 0.01 0.00 0.00 0.00 0.00 0.00 0.00 0.00 0.00 0.00 0.00 0.00 0.00
0.05 0.05 0.03 0.01 0.01 0.01 0.00 0.00 0.00 0.00 0.00 0.00 0.01 0.03 0.03 0.03 0.05 0.06 0.09 0.18 0.24 0.26 0.29 0.24 0.18 0.14 0.07 0.04 0.02 0.01 0.01 0.00 0.00 0.00 0.00 0.00 0.00 0.00 0.00 0.00 0.00 0.00 0.00
0.06 0.07 0.05 0.02 0.01 0.00 0.00 0.00 0.00 0.00 0.00 0.00 0.01 0.03 0.02 0.01 0.01 0.02 0.02 0.05 0.08 0.11 0.13 0.11 0.07 0.05 0.03 0.02 0.01 0.00 0.00 0.00 0.00 0.00 0.00 0.00 0.00 0.00 0.00 0.00 0.00 0.00 0.00
0.05 0.08 0.08 0.05 0.02 0.01 0.00 0.00 0.00 0.00 0.00 0.00 0.00 0.00 0.00 0.00 0.00 0.00 0.00 0.00 0.01 0.02 0.02 0.02 0.02 0.01 0.01 0.01 0.01 0.01 0.01 0.00 0.00 0.00 0.00 0.00 0.00 0.00 0.00 0.00 0.00 0.00 0.00
0.05 0.08 0.09 0.08 0.05 0.02 0.00 0.00 0.00 0.00 0.00 0.00 0.00 0.00 0.00 0.00 0.00 0.00 0.00 0.00 0.00 0.00 0.00 0.00 0.00 0.00 0.00 0.00 0.00 0.00 0.01 0.00 0.00 0.00 0.00 0.01 0.01 0.01 0.01 0.00 0.00 0.00 0.00
0.08 0.12 0.14 0.14 0.11 0.05 0.00 0.00 0.00 0.00 0.00 0.00 0.00 0.00 0.00 0.00 0.00 0.00 0.00 0.00 0.00 0.00 0.00 0.00 0.00 0.00 0.00 0.00 0.00 0.00 0.00 0.00 0.00 0.00 0.00 0.00 0.00 0.02 0.04 0.02 0.00 0.00 0.00
0.11 0.16 0.21 0.22 0.18 0.10 0.02 0.00 0.00 0.00 0.00 0.00 0.00 0.00 0.00 0.00 0.00 0.00 0.00 0.00 0.00 0.00 0.00 0.00 0.00 0.00 0.00 0.00 0.00 0.00 0.00 0.00 0.00 0.00 0.00 0.00 0.00 0.01 0.04 0.03 0.01 0.00 0.00
MSLP
1012.24 1012.40 1012.53 1012.63 1012.71 1012.77 1012.84 1012.91 1012.97 1013.00 1012.99 1012.91 1012.78 1012.61 1012.43 1012.28 1012.19 1012.18 1012.26 1012.41 1012.61 1012.82 1013.02 1013.18 1013.30 1013.39 1013.47 1013.58 1013.72 1013.92 1014.17 1014.47 1014.78 1015.10 1015.42 1015.72 1016.00 1016.29 1016.57 1016.86 1017.17 1017.48 1017.79
1011.91 1012.12 1012.30 1012.45 1012.56 1012.65 1012.72 1012.77 1012.78 1012.76 1012.68 1012.55 1012.36 1012.15 1011.93 1011.74 1011.62 1011.57 1011.61 1011.73 1011.90 1012.09 1012.27 1012.43 1012.57 1012.68 1012.80 1012.93 1013.10 1013.31 1013.57 1013.86 1014.17 1014.49 1014.80 1015.10 1015.38 1015.67 1015.96 1016.26 1016.56 1016.88 1017.19
1011.64 1011.87 1012.08 1012.26 1012.41 1012.51 1012.58 1012.61 1012.59 1012.52 1012.39 1012.20 1011.96 1011.69 1011.43 1011.19 1011.01 1010.91 1010.90 1010.96 1011.09 1011.25 1011.43 1011.61 1011.77 1011.92 1012.08 1012.25 1012.45 1012.68 1012.94 1013.23 1013.52 1013.82 1014.12 1014.40 1014.69 1014.97 1015.27 1015.57 1015.88 1016.20 1016.52
1011.39 1011.61 1011.83 1012.03 1012.18 1012.29 1012.35 1012.36 1012.31 1012.20 1012.03 1011.80 1011.52 1011.21 1010.89 1010.61 1010.37 1010.21 1010.13 1010.14 1010.22 1010.36 1010.53 1010.72 1010.91 1011.11 1011.32 1011.53 1011.76 1012.01 1012.27 1012.54 1012.82 1013.09 1013.36 1013.63 1013.90 1014.18 1014.48 1014.79 1015.12 1015.46 1015.79
1011.17 1011.36 1011.55 1011.72 1011.85 1011.94 1011.98 1011.97 1011.90 1011.76 1011.57 1011.32 1011.01 1010.68 1010.33 1010.00 1009.71 1009.49 1009.36 1009.31 1009.34 1009.44 1009.60 1009.80 1010.02 1010.26 1010.51 1010.77 1011.03 1011.28 1011.54 1011.80 1012.04 1012.28 1012.52 1012.77 1013.02 1013.30 1013.60 1013.93 1014.28 1014.64 1015.01
1010.98 1011.11 1011.24 1011.36 1011.44 1011.49 1011.49 1011.44 1011.34 1011.19 1010.99 1010.73 1010.43 1010.09 1009.74 1009.39 1009.07 1008.80 1008.61 1008.51 1008.49 1008.55 1008.69 1008.89 1009.13 1009.40 1009.68 1009.97 1010.25 1010.52 1010.77 1011.00 1011.22 1011.42 1011.63 1011.85 1012.09 1012.36 1012.66 1013.00 1013.38 1013.77 1014.17
1010.84 1010.90 1010.96 1011.00 1011.01 1010.98 1010.92 1010.83 1010.70 1010.53 1010.33 1010.09 1009.80 1009.49 1009.14 1008.80 1008.47 1008.18 1007.95 1007.80 1007.73 1007.76 1007.87 1008.05 1008.29 1008.58 1008.88 1009.18 1009.47 1009.74 1009.98 1010.19 1010.38 1010.55 1010.72 1010.91 1011.13 1011.39 1011.69 1012.04 1012.43 1012.84 1013.27
1010.76 1010.76 1010.74 1010.70 1010.62 1010.51 1010.38 1010.22 1010.05 1009.86 1009.65 1009.42 1009.17 1008.89 1008.58 1008.26 1007.94 1007.65 1007.40 1007.21 1007.11 1007.10 1007.17 1007.33 1007.56 1007.83 1008.14 1008.44 1008.73 1009.00 1009.22 1009.42 1009.58 1009.72 1009.87 1010.03 1010.22 1010.46 1010.75 1011.09 1011.48 1011.90 1012.34
1010.73 1010.69 1010.61 1010.50 1010.34 1010.15 1009.94 1009.71 1009.48 1009.25 1009.03 1008.81 1008.58 1008.33 1008.07 1007.79 1007.50 1007.22 1006.97 1006.77 1006.64 1006.59 1006.64 1006.76 1006.97 1007.23 1007.52 1007.81 1008.10 1008.36 1008.58 1008.75 1008.90 1009.02 1009.14 1009.27 1009.43 1009.63 1009.89 1010.21 1010.57 1010.97 1011.41
1010.72 1010.67 1010.57 1010.41 1010.19 1009.93 1009.64 1009.34 1009.04 1008.76 1008.51 1008.28 1008.06 1007.84 1007.61 1007.37 1007.12 1006.87 1006.64 1006.44 1006.30 1006.24 1006.26 1006.36 1006.54 1006.78 1007.06 1007.34 1007.62 1007.88 1008.09 1008.27 1008.40 1008.51 1008.60 1008.71 1008.83 1009.00 1009.21 1009.47 1009.78 1010.14 1010.53
1010.67 1010.65 1010.56 1010.39 1010.14 1009.83 1009.47 1009.10 1008.74 1008.40 1008.09 1007.83 1007.59 1007.38 1007.17 1006.97 1006.76 1006.55 1006.35 1006.18 1006.06 1006.00 1006.02 1006.11 1006.27 1006.50 1006.77 1007.05 1007.33 1007.59 1007.81 1007.99 1008.13 1008.23 1008.31 1008.39 1008.48 1008.60 1008.75 1008.95 1009.19 1009.47 1009.79
1010.52 1010.56 1010.50 1010.35 1010.11 1009.77 1009.38 1008.95 1008.52 1008.11 1007.74 1007.43 1007.16 1006.93 1006.73 1006.55 1006.38 1006.21 1006.06 1005.94 1005.85 1005.82 1005.86 1005.96 1006.13 1006.36 1006.63 1006.92 1007.21 1007.49 1007.73 1007.93 1008.08 1008.20 1008.28 1008.35 1008.41 1008.48 1008.57 1008.68 1008.84 1009.04 1009.27
1010.24 1010.33 1010.33 1010.22 1010.00 1009.68 1009.27 1008.81 1008.33 1007.85 1007.42 1007.04 1006.71 1006.45 1006.24 1006.07 1005.93 1005.81 1005.72 1005.65 1005.63 1005.65 1005.73 1005.87 1006.07 1006.33 1006.62 1006.93 1007.25 1007.55 1007.82 1008.05 1008.24 1008.38 1008.48 1008.55 1008.59 1008.63 1008.66 1008.71 1008.79 1008.89 1009.03
1009.79 1009.92 1009.97 1009.92 1009.75 1009.46 1009.07 1008.60 1008.08 1007.56 1007.06 1006.62 1006.24 1005.94 1005.70 1005.53 1005.41 1005.34 1005.31 1005.32 1005.37 1005.46 1005.61 1005.81 1006.06 1006.35 1006.68 1007.02 1007.37 1007.71 1008.02 1008.30 1008.53 1008.71 1008.84 1008.93 1008.98 1009.01 1009.02 1009.02 1009.03 1009.06 1009.11
1009.21 1009.35 1009.44 1009.43 1009.32 1009.08 1008.72 1008.27 1007.75 1007.21 1006.67 1006.18 1005.75 1005.41 1005.15 1004.97 1004.87 1004.83 1004.86 1004.94 1005.07 1005.24 1005.47 1005.73 1006.04 1006.39 1006.76 1007.14 1007.53 1007.91 1008.26 1008.58 1008.86 1009.10 1009.28 1009.42 1009.50 1009.55 1009.56 1009.55 1009.52 1009.50 1009.49
1008.55 1008.66 1008.76 1008.79 1008.73 1008.55 1008.25 1007.84 1007.35 1006.82 1006.27 1005.75 1005.29 1004.92 1004.63 1004.45 1004.36 1004.36 1004.43 1004.58 1004.78 1005.03 1005.33 1005.66 1006.02 1006.41 1006.82 1007.24 1007.66 1008.07 1008.47 1008.84 1009.17 1009.46 1009.71 1009.90 1010.05 1010.14 1010.19 1010.20 1010.18 1010.14 1010.10
1007.87 1007.93 1008.00 1008.06 1008.04 1007.93 1007.70 1007.36 1006.93 1006.43 1005.91 1005.40 1004.93 1004.54 1004.25 1004.07 1003.98 1004.01 1004.12 1004.31 1004.56 1004.87 1005.22 1005.60 1006.01 1006.43 1006.86 1007.30 1007.74 1008.17 1008.58 1008.99 1009.36 1009.71 1010.03 1010.30 1010.52 1010.69 1010.80 1010.87 1010.89 1010.87 1010.83
1007.24 1007.23 1007.28 1007.33 1007.36 1007.30 1007.15 1006.90 1006.54 1006.11 1005.64 1005.17 1004.73 1004.36 1004.07 1003.89 1003.82 1003.86 1003.99 1004.20 1004.49 1004.82 1005.20 1005.60 1006.02 1006.45 1006.88 1007.31 1007.75 1008.17 1008.60 1009.02 1009.42 1009.82 1010.19 1010.53 1010.84 1011.10 1011.30 1011.45 1011.54 1011.58 1011.57
1006.71 1006.63 1006.65 1006.70 1006.75 1006.75 1006.68 1006.51 1006.25 1005.90 1005.51 1005.11 1004.72 1004.38 1004.12 1003.96 1003.90 1003.94 1004.08 1004.30 1004.59 1004.93 1005.30 1005.69 1006.10 1006.50 1006.91 1007.31 1007.72 1008.12 1008.53 1008.94 1009.36 1009.78 1010.20 1010.60 1010.98 1011.33 1011.63 1011.87 1012.05 1012.15 1012.20
1006.29 1006.16 1006.15 1006.19 1006.26 1006.31 1006.30 1006.22 1006.05 1005.80 1005.51 1005.19 1004.87 1004.60 1004.39 1004.25 1004.21 1004.26 1004.40 1004.61 1004.88 1005.19 1005.54 1005.89 1006.26 1006.62 1006.98 1007.34 1007.69 1008.05 1008.42 1008.81 1009.22 1009.65 1010.09 1010.54 1010.98 1011.40 1011.78 1012.11 1012.37 1012.55 1012.66
1005.96 1005.80 1005.76 1005.81 1005.89 1005.97 1006.01 1006.00 1005.92 1005.77 1005.58 1005.35 1005.13 1004.94 1004.79 1004.70 1004.69 1004.75 1004.88 1005.08 1005.32 1005.60 1005.89 1006.20 1006.52 1006.82 1007.12 1007.42 1007.72 1008.03 1008.35 1008.70 1009.08 1009.49 1009.94 1010.40 1010.88 1011.34 1011.79 1012.18 1012.51 1012.76 1012.92
1005.66 1005.50 1005.46 1005.50 1005.58 1005.68 1005.75 1005.80 1005.79 1005.73 1005.64 1005.52 1005.40 1005.30 1005.22 1005.20 1005.23 1005.31 1005.45 1005.63 1005.85 1006.09 1006.34 1006.60 1006.86 1007.11 1007.35 1007.59 1007.84 1008.09 1008.37 1008.67 1009.01 1009.40 1009.82 1010.28 1010.76 1011.24 1011.71 1012.14 1012.51 1012.81 1013.01
1005.35 1005.21 1005.17 1005.20 1005.27 1005.37 1005.47 1005.54 1005.60 1005.62 1005.62 1005.60 1005.59 1005.59 1005.61 1005.66 1005.74 1005.87 1006.02 1006.20 1006.40 1006.62 1006.84 1007.06 1007.27 1007.48 1007.68 1007.87 1008.08 1008.29 1008.52 1008.78 1009.08 1009.43 1009.82 1010.25 1010.70 1011.17 1011.63 1012.07 1012.45 1012.75 1012.97
1004.98 1004.87 1004.83 1004.85 1004.91 1005.00 1005.10 1005.20 1005.30 1005.39 1005.47 1005.56 1005.65 1005.75 1005.86 1006.00 1006.16 1006.33 1006.52 1006.72 1006.92 1007.13 1007.33 1007.53 1007.72 1007.90 1008.08 1008.25 1008.43 1008.62 1008.82 1009.05 1009.31 1009.62 1009.96 1010.35 1010.76 1011.19 1011.61 1012.01 1012.37 1012.66 1012.87
1004.55 1004.45 1004.41 1004.42 1004.47 1004.54 1004.64 1004.76 1004.90 1005.05 1005.21 1005.39 1005.58 1005.78 1005.99 1006.21 1006.45 1006.68 1006.91 1007.14 1007.37 1007.59 1007.79 1007.99 1008.18 1008.36 1008.53 1008.70 1008.87 1009.05 1009.24 1009.45 1009.69 1009.96 1010.26 1010.59 1010.94 1011.31 1011.68 1012.02 1012.32 1012.57 1012.74
1004.04 1003.96 1003.93 1003.93 1003.97 1004.04 1004.15 1004.29 1004.47 1004.68 1004.91 1005.16 1005.44 1005.73 1006.03 1006.34 1006.64 1006.93 1007.22 1007.49 1007.74 1007.98 1008.21 1008.42 1008.62 1008.81 1009.00 1009.17 1009.35 1009.54 1009.73 1009.93 1010.15 1010.39 1010.65 1010.93 1011.23 1011.52 1011.82 1012.09 1012.32 1012.50 1012.63
Thickness
5765 5762 5760 5757 5755 5753 5749 5745 5744 5743 5744 5745 5747 5747 5745 5747 5750 5752 5752 5750 5749 5749 5749 5750 5750 5750 5750 5749 5748 5747 5746 5745 5744 5742 5740 5738 5736 5735 5733 5732 5731 5729 5728
5758 5756 5755 5751 5749 5745 5741 5738 5736 5733 5736 5740 5743 5743 5742 5743 5745 5747 5748 5748 5748 5748 5749 5750 5750 5750 5750 5750 5748 5747 5746 5745 5745 5744 5742 5741 5739 5737 5735 5733 5733 5731 5729
5754 5751 5749 5746 5744 5741 5737 5734 5731 5728 5732 5737 5741 5743 5743 5742 5743 5744 5744 5745 5746 5747 5747 5749 5750 5750 5750 5749 5748 5746 5745 5744 5744 5743 5742 5742 5741 5739 5737 5735 5734 5732 5730
5748 5745 5743 5741 5738 5736 5734 5730 5728 5727 5729 5733 5738 5742 5744 5745 5745 5743 5741 5741 5742 5745 5748 5748 5748 5749 5749 5747 5746 5745 5744 5743 5742 5742 5741 5741 5740 5740 5739 5738 5735 5733 5731
5744 5742 5740 5737 5736 5735 5733 5731 5729 5725 5726 5729 5733 5737 5741 5743 5744 5742 5738 5737 5738 5739 5742 5746 5745 5746 5746 5745 5744 5743 5742 5741 5740 5740 5740 5740 5740 5740 5740 5739 5737 5735 5733
5741 5739 5738 5735 5733 5732 5731 5729 5726 5724 5724 5726 5729 5734 5738 5741 5742 5741 5738 5737 5737 5738 5739 5742 5743 5745 5744 5743 5742 5741 5739 5739 5739 5739 5739 5739 5739 5739 5739 5739 5738 5737 5735
5736 5733 5732 5730 5727 5726 5724 5723 5723 5723 5723 5726 5723 5727 5735 5741 5742 5742 5740 5738 5740 5740 5741 5741 5741 5743 5744 5741 5741 5740 5738 5737 5738 5738 5738 5738 5738 5738 5739 5739 5738 5737 5736
5730 5730 5725 5724 5723 5719 5717 5717 5715 5716 5721 5723 5720 5720 5725 5734 5740 5744 5742 5739 5739 5739 5739 5740 5739 5739 5738 5739 5742 5739 5736 5735 5735 5736 5737 5737 5736 5737 5738 5738 5738 5737 5736
5725 5722 5720 5719 5717 5716 5716 5713 5711 5709 5712 5718 5721 5717 5718 5723 5733 5740 5741 5740 5737 5736 5736 5737 5736 5737 5736 5735 5737 5737 5734 5733 5732 5734 5735 5736 5735 5735 5736 5736 5736 5736 5736
5721 5718 5716 5714 5713 5713 5711 5708 5707 5705 5704 5708 5714 5717 5718 5721 5719 5722 5731 5735 5734 5731 5732 5733 5734 5734 5733 5732 5733 5730 5728 5727 5727 5728 5731 5732 5732 5732 5732 5732 5733 5734 5735
5716 5713 5711 5709 5708 5709 5707 5703 5700 5699 5700 5701 5705 5709 5711 5712 5713 5710 5716 5725 5728 5731 5731 5730 5730 5731 5731 5729 5727 5725 5723 5721 5721 5721 5723 5725 5726 5726 5726 5727 5729 5731 5733
5714 5711 5707 5704 5703 5703 5701 5698 5697 5696 5696 5697 5698 5701 5703 5706 5710 5711 5712 5716 5721 5725 5726 5726 5725 5724 5723 5722 5719 5715 5713 5712 5712 5713 5714 5716 5717 5718 5719 5720 5723 5726 5730
5711 5706 5702 5698 5697 5696 5695 5694 5694 5694 5694 5693 5692 5695 5699 5703 5707 5708 5708 5714 5716 5718 5715 5715 5716 5716 5715 5711 5706 5704 5703 5702 5702 5703 5704 5706 5707 5707 5708 5709 5713 5717 5722
5704 5699 5695 5692 5691 5691 5691 5691 5691 5691 5691 5690 5691 5691 5692 5696 5701 5704 5706 5707 5705 5704 5705 5705 5706 5706 5704 5701 5697 5696 5694 5693 5693 5694 5694 5695 5696 5696 5696 5697 5699 5704 5709
5696 5692 5689 5688 5687 5687 5687 5686 5686 5685 5686 5687 5688 5688 5687 5691 5694 5699 5702 5703 5699 5696 5697 5698 5695 5696 5694 5691 5687 5687 5686 5685 5686 5686 5685 5685 5685 5684 5685 5686 5687 5691 5696
5689 5685 5682 5682 5682 5682 5682 5681 5681 5682 5683 5685 5684 5683 5682 5685 5688 5692 5696 5698 5698 5695 5692 5691 5690 5687 5684 5682 5678 5678 5677 5678 5678 5678 5676 5676 5675 5673 5674 5675 5677 5679 5683
5682 5679 5677 5676 5676 5677 5677 5676 5678 5679 5679 5679 5680 5679 5677 5677 5680 5685 5689 5693 5693 5690 5684 5680 5678 5674 5671 5670 5670 5672 5673 5672 5669 5668 5667 5665 5665 5663 5663 5665 5666 5669 5671
5673 5673 5673 5672 5672 5672 5671 5671 5673 5673 5672 5671 5672 5671 5670 5670 5671 5675 5680 5684 5685 5683 5678 5669 5664 5661 5660 5661 5663 5665 5666 5664 5660 5657 5656 5655 5654 5653 5653 5654 5656 5659 5661
5665 5666 5667 5668 5668 5667 5666 5666 5667 5667 5666 5665 5664 5663 5661 5661 5662 5664 5669 5672 5673 5672 5668 5661 5655 5654 5653 5654 5656 5658 5658 5657 5654 5649 5647 5645 5645 5645 5645 5646 5647 5649 5651
5657 5659 5661 5663 5663 5661 5661 5661 5661 5661 5661 5660 5658 5656 5655 5654 5655 5656 5658 5659 5659 5656 5653 5650 5648 5647 5646 5650 5652 5652 5650 5650 5650 5647 5642 5639 5638 5639 5639 5639 5640 5641 5642
5648 5650 5652 5656 5657 5656 5656 5654 5653 5655 5656 5655 5653 5651 5650 5647 5647 5649 5650 5649 5648 5644 5640 5639 5638 5639 5641 5644 5649 5651 5646 5644 5643 5644 5642 5641 5640 5639 5638 5634 5634 5634 5635
5634 5639 5642 5647 5649 5652 5648 5642 5642 5647 5649 5649 5647 5645 5645 5642 5639 5639 5640 5640 5640 5637 5633 5633 5633 5635 5636 5641 5645 5646 5643 5642 5638 5640 5640 5637 5636 5633 5630 5627 5623 5624 5624
5616 5623 5629 5636 5639 5641 5637 5633 5629 5635 5640 5642 5640 5639 5641 5636 5634 5633 5631 5631 5631 5632 5633 5634 5631 5630 5631 5634 5637 5638 5639 5640 5635 5635 5635 5630 5627 5623 5618 5613 5613 5614 5614
5594 5602 5613 5622 5627 5629 5625 5623 5621 5625 5631 5634 5634 5632 5630 5628 5627 5627 5627 5626 5625 5623 5626 5626 5625 5625 5627 5629 5631 5632 5630 5627 5627 5628 5631 5624 5621 5617 5615 5609 5606 5606 5606
5571 5580 5592 5603 5612 5616 5613 5612 5610 5618 5621 5625 5626 5625 5624 5620 5614 5617 5619 5617 5615 5612 5610 5611 5612 5613 5615 5619 5623 5627 5625 5626 5624 5622 5624 5622 5616 5613 5609 5607 5602 5600 5599
5548 5560 5572 5584 5595 5603 5601 5601 5599 5611 5613 5617 5616 5614 5612 5612 5606 5608 5612 5611 5608 5607 5608 5607 5606 5608 5611 5613 5615 5620 5623 5624 5620 5615 5613 5615 5612 5610 5602 5602 5602 5599 5597